Weather History for HESN - October, 2011

Change the Weather History Date:

Saturday, October 15, 2011

  Actual Average Record
Temperature  
Mean Temperature 86 °F -  
Max Temperature 100 °F 88 °F - ()
Min Temperature 73 °F 66 °F - ()
Cooling Degree Days 22    
Growing Degree Days 36 (Base 50)    
Moisture  
Dew Point 47 °F    
Average Humidity 27    
Maximum Humidity 38    
Minimum Humidity 12    
Precipitation  
Precipitation 0.00 in 0.00 in - ()
Sea Level Pressure  
Sea Level Pressure 29.89 in    
Wind  
Wind Speed 7 mph ()    
Max Wind Speed 12 mph    
Max Gust Speed -    
Visibility 6.0 miles    
Events      
T = Trace of Precipitation, MM = Missing Value Source: Averaged Metar Reports

Daily Weather History Graph

Daily Weather History Graph

Search for Another Location

Airport or City:

Trip Planner

Search our weather history database for the weather conditions in past years. The results will help you decide how hot, cold, wet, or windy it might be!

Date:

Astronomy

Oct. 15, 2011 Rise Set
Actual Time 5:45 AM EET 5:22 PM EET
Civil Twilight 5:23 AM EET 5:45 PM EET
Nautical Twilight 4:56 AM EET 6:12 PM EET
Astronomical Twilight 4:30 AM EET 6:38 PM EET
Moon 7:29 PM EET (10/15) 8:26 AM EET (10/15)
Length of Visible Light 12h 22m
Length of Day
11h 36m
Waning Gibbous, 90% of the Moon is Illuminated
Oct 15
Waning Gibbous
Oct 20
Last Quarter
Oct 26
New
Nov 2
First Quarter
Nov 10
Full

Hourly Weather History & Observations

Time (EET) Temp. Dew Point Humidity Pressure Visibility Wind Dir Wind Speed Gust Speed Precip Events Conditions
12:00 AM 80.6 °F 44.6 °F 28% 29.89 in - North 8.1 mph - N/A   Clear
1:00 AM 78.8 °F 44.6 °F 30% 29.89 in - North 8.1 mph - N/A   Clear
2:00 AM 78 °F 44 °F 19% 29.88 in 6 mi NNE 6.9 mph - -  
2:00 AM 78.8 °F 44.6 °F 30% 29.89 in - NNE 6.9 mph - N/A   Clear
3:00 AM 77.0 °F 44.6 °F 32% 29.89 in - North 6.9 mph - N/A   Clear
4:00 AM 75.2 °F 44.6 °F 34% 29.89 in - North 6.9 mph - N/A   Clear
5:00 AM 75.2 °F 44.6 °F 34% 29.92 in - NNE 10.4 mph - N/A   Clear
6:00 AM 75.2 °F 46.4 °F 36% 29.92 in - North 9.2 mph - N/A   Clear
7:00 AM 75.2 °F 48.2 °F 38% 29.92 in - North 5.8 mph - N/A   Clear
8:00 AM 79 °F 48 °F 23% 29.91 in 6 mi North 5.8 mph - -  
8:00 AM 78.8 °F 48.2 °F 34% 29.92 in - North 5.8 mph - N/A   Clear
9:00 AM 84.2 °F 48.2 °F 29% 29.95 in - North 9.2 mph - N/A   Clear
10:00 AM 87.8 °F 48.2 °F 25% 29.95 in - North 8.1 mph - N/A   Clear
11:00 AM 91.4 °F 50.0 °F 24% 29.92 in - North 6.9 mph - N/A   Clear
1:00 PM 98.6 °F 51.8 °F 21% 29.86 in - North 5.8 mph - N/A   Clear
2:00 PM 100 °F 51 °F 12% 29.79 in 6 mi North 6.9 mph - -  
2:00 PM 100.4 °F 51.8 °F 20% 29.83 in - North 6.9 mph - N/A   Clear
5:00 PM 98.6 °F 48.2 °F 18% 29.83 in - North 11.5 mph - N/A   Clear
8:00 PM 89 °F 47 °F 15% 29.84 in 6 mi North 11.5 mph - -  
8:00 PM 89.6 °F 48.2 °F 24% 29.86 in - North 11.5 mph - N/A   Clear
9:00 PM 86.0 °F 48.2 °F 27% 29.89 in - North 10.4 mph - N/A   Clear
10:00 PM 84.2 °F 48.2 °F 29% 29.89 in - North 9.2 mph - N/A   Clear
11:00 PM 82.4 °F 46.4 °F 28% 29.89 in - North 9.2 mph - N/A   Clear